Wind_Speed
18 18 17 16 17 15 14 14 14 14 13 13 12 12 11 11 11 10 10 10 9 8 8 8 7 8 8 9 9 10 10 10 10 10 10 11 10 10 10 10 10 10 10 10 9 10 9 9 9
18 18 17 17 16 14 14 14 14 14 13 13 12 11 11 10 10 10 10 9 8 7 8 7 7 7 8 9 9 10 10 10 10 10 10 10 10 10 10 10 10 10 10 10 10 10 10 9 9
17 17 17 17 15 14 14 14 14 14 13 13 12 11 10 10 10 9 9 9 7 7 7 7 6 7 8 8 9 10 10 10 10 10 9 9 10 10 10 9 10 9 10 10 10 9 9 9 9
17 17 17 16 15 15 15 15 15 15 14 13 12 12 11 10 10 9 9 9 8 7 6 6 6 6 7 8 9 9 10 10 10 10 9 9 9 9 9 9 9 9 9 9 9 9 9 9 8
16 17 16 14 15 15 16 16 16 15 14 13 12 12 11 11 10 9 9 8 8 7 6 6 6 6 7 8 8 9 9 9 9 9 9 9 9 8 8 9 9 8 8 8 8 9 9 8 8
16 17 14 14 14 15 16 16 16 16 14 13 12 12 11 11 10 9 9 8 7 7 6 6 6 6 7 7 8 8 8 8 8 8 8 8 8 8 8 8 8 8 8 8 8 8 8 8 7
15 15 13 13 14 15 16 16 16 16 15 14 12 12 11 10 10 9 9 9 8 7 7 6 7 6 6 6 7 7 8 8 8 8 8 8 8 8 8 8 8 8 8 8 8 8 8 8 7
13 14 13 14 15 15 15 16 16 16 15 14 13 13 11 11 10 9 8 8 8 7 7 6 6 6 6 6 6 7 6 7 7 7 7 7 7 7 8 8 7 7 8 8 8 8 8 8 7
13 13 12 13 14 15 16 16 16 16 16 15 14 13 12 11 10 9 8 8 7 7 6 6 6 6 6 5 5 5 5 6 6 6 6 7 7 7 8 7 7 7 7 8 8 7 7 7 7
12 10 11 12 13 15 16 16 16 16 17 16 15 14 12 11 10 10 9 8 7 7 6 6 6 5 5 5 5 6 5 5 5 5 6 6 6 7 7 7 7 7 7 7 7 7 7 7 7
10 10 10 12 13 14 16 16 16 16 16 16 15 14 13 12 11 10 9 9 7 7 6 6 6 5 5 4 5 5 5 5 5 5 5 5 5 6 6 6 6 7 7 7 6 6 6 6 6
9 9 9 11 12 14 15 15 16 16 15 15 15 14 13 12 11 10 9 8 8 7 6 6 6 5 5 5 4 4 4 4 4 4 4 4 4 4 5 5 5 6 6 6 6 6 5 5 5
8 8 8 9 11 12 13 14 15 15 15 15 14 14 14 13 12 11 10 9 9 8 7 6 5 5 4 4 4 3 3 3 3 3 3 2 2 3 3 4 5 5 5 5 5 4 4 3 3
6 7 7 8 9 10 11 12 13 14 14 14 14 14 14 14 13 12 11 10 9 8 7 6 5 4 3 2 3 3 3 2 2 2 2 2 2 2 3 4 4 5 4 4 4 3 2 2 1
5 5 6 6 7 8 10 11 11 12 13 13 13 13 12 13 13 12 11 10 9 8 8 6 6 5 4 3 2 2 1 1 1 2 2 2 2 2 3 3 4 4 4 3 3 2 2 1 1
5 5 4 5 6 7 8 9 9 10 12 12 12 11 11 11 12 11 11 10 10 9 8 7 6 5 4 3 2 2 1 1 1 1 1 1 1 2 3 3 4 4 4 3 2 2 1 1 2
4 4 3 3 4 5 7 7 8 9 10 11 11 11 10 11 11 11 11 11 10 9 8 7 6 5 4 3 3 2 2 1 1 1 1 0 1 2 3 4 4 4 4 3 3 3 3 3 3
5 4 2 1 2 4 5 6 7 7 9 10 10 10 10 10 10 10 10 10 9 10 9 7 6 5 5 4 3 3 2 1 1 2 1 1 2 2 2 3 4 4 4 4 4 4 4 4 4
8 5 3 2 1 2 3 5 6 6 7 8 9 8 9 9 10 10 10 10 10 10 9 8 7 6 5 4 4 4 3 2 2 2 1 1 2 3 2 2 3 4 5 5 5 5 5 6 6
8 6 5 3 1 0 2 4 5 5 6 6 7 7 8 9 10 11 11 11 11 10 9 8 7 6 6 5 5 4 4 4 3 3 3 2 2 3 3 3 4 5 5 6 6 6 7 7 7
10 8 6 4 2 1 1 4 4 5 5 6 6 6 7 8 10 11 11 11 11 10 9 8 8 7 7 6 6 5 5 5 5 4 4 4 4 3 4 4 4 5 6 6 7 8 8 8 8
12 10 8 5 3 4 1 3 5 4 5 6 6 6 7 8 10 11 11 12 12 11 10 9 8 8 7 7 7 6 5 6 6 5 5 5 5 5 5 5 5 6 7 7 8 8 9 9 9
14 11 10 8 6 5 4 2 6 5 5 6 6 6 7 8 10 11 11 12 12 12 11 10 9 8 8 8 7 7 7 6 6 6 5 5 5 6 6 6 6 6 7 8 9 9 9 10 11
15 13 12 10 8 8 7 4 5 6 5 5 5 6 6 8 10 10 10 11 11 12 12 11 10 9 8 7 7 7 7 7 7 6 6 6 6 7 7 7 7 7 8 8 9 9 10 11 12
18 15 14 12 11 11 9 6 7 7 7 7 6 6 7 8 9 10 9 10 11 12 12 11 11 10 8 8 8 7 8 8 7 7 7 7 7 8 7 8 8 8 9 9 10 10 11 11 12
20 18 17 14 12 12 11 9 8 7 8 8 7 7 8 8 9 9 9 10 11 12 13 13 12 10 9 9 8 8 8 8 8 7 7 7 8 9 8 9 9 9 9 10 11 11 11 12 13
22 21 18 16 15 13 13 11 9 9 9 9 8 8 8 8 9 9 9 10 11 12 13 13 11 10 10 9 9 9 9 8 8 8 7 8 8 9 9 9 9 10 10 11 11 11 12 13 14
25 23 21 19 17 14 14 12 11 11 10 9 9 9 9 9 9 10 10 11 11 13 13 13 11 10 10 10 10 10 10 9 9 9 8 9 9 9 9 9 9 10 11 12 12 12 13 14 15
26 25 23 21 19 16 13 13 13 12 11 10 10 10 9 9 10 11 11 11 12 13 13 13 12 11 11 11 10 11 11 10 10 9 9 9 9 9 9 9 10 11 11 12 12 13 14 14 15
27 26 25 23 21 18 15 14 14 12 11 11 11 10 10 10 10 11 11 11 12 13 13 13 12 12 12 11 11 11 11 10 10 9 9 9 10 10 10 10 10 11 12 12 13 13 14 15 15
Wind_Direction
69 69 68 70 70 72 76 78 79 81 83 83 85 86 87 90 94 95 92 88 86 83 84 85 88 91 93 94 94 94 94 94 93 91 89 90 91 91 90 88 86 87 86 85 87 88 88 91 96
69 67 67 69 73 72 72 74 77 79 80 80 82 83 81 85 90 92 91 89 86 82 82 84 88 93 97 97 95 94 96 97 96 92 89 91 93 92 92 91 89 90 88 85 86 87 88 89 91
68 65 65 70 73 74 73 73 75 78 79 79 79 80 80 80 85 87 88 89 86 83 83 86 88 91 96 97 97 95 94 95 94 92 91 91 92 92 94 94 93 91 90 88 87 86 89 92 94
68 67 67 69 70 71 71 72 74 75 75 76 77 79 80 80 82 85 87 86 83 82 81 83 88 91 93 97 99 97 94 93 92 90 92 94 94 95 96 96 95 94 93 91 92 91 90 95 96
66 66 66 69 68 68 71 71 71 70 69 71 74 77 81 81 79 81 86 82 81 80 76 80 88 88 92 96 98 99 97 96 94 93 93 96 97 98 98 97 97 96 95 92 93 94 94 95 96
66 66 70 69 67 67 68 68 68 65 64 66 70 75 77 78 76 76 78 78 79 77 75 78 84 87 91 95 98 100 100 99 98 96 95 97 98 98 97 97 98 99 98 96 95 95 95 95 97
70 71 72 70 68 67 66 65 64 61 62 62 65 70 73 73 73 72 73 75 74 74 73 75 79 83 88 92 95 98 98 99 97 96 98 100 101 101 99 99 99 99 99 99 96 95 96 97 96
72 70 68 69 69 68 66 63 61 59 59 59 61 65 68 71 71 70 69 71 71 70 69 71 75 79 84 88 92 96 96 95 95 94 97 99 102 103 104 105 104 103 101 101 100 98 96 96 95
76 73 70 70 70 68 65 63 60 59 58 58 60 63 65 68 69 67 66 69 68 67 67 69 73 77 81 83 89 94 95 94 95 96 98 101 102 103 105 106 108 108 108 106 103 101 99 97 96
79 77 70 69 70 69 65 61 60 59 57 55 58 60 61 63 64 64 64 65 65 64 65 69 70 71 75 80 86 92 95 93 95 98 100 101 104 107 107 109 109 112 112 110 107 105 105 101 97
84 79 73 71 69 68 66 62 59 58 55 53 54 56 58 60 61 61 60 57 58 59 63 68 65 65 72 82 90 94 93 94 95 100 104 107 111 114 112 115 113 116 115 112 110 112 110 103 98
89 83 77 73 71 69 67 64 58 56 55 52 51 52 54 56 57 56 54 53 52 55 58 60 61 62 67 77 87 94 94 95 98 100 107 118 122 120 124 125 123 121 118 115 114 118 111 104 105
95 90 82 77 75 71 66 61 57 54 51 49 47 47 48 50 50 49 47 47 46 47 48 51 54 60 64 67 76 87 97 103 102 101 105 123 136 136 135 133 134 130 125 122 118 118 112 110 112
106 101 91 82 78 71 65 60 54 51 47 46 45 44 43 45 46 45 44 42 41 42 42 41 43 46 51 54 60 72 87 101 112 109 117 123 147 155 153 149 147 145 145 144 136 129 122 124 130
115 104 94 88 81 72 61 56 51 47 45 42 40 40 39 39 40 39 37 35 33 32 32 31 27 31 43 46 53 57 65 91 83 106 113 117 139 166 167 167 166 165 165 168 171 169 170 162 225
128 105 93 90 77 66 56 48 45 41 41 38 35 35 34 32 33 33 32 31 29 26 22 18 20 26 25 31 31 33 32 33 45 97 99 131 156 185 193 194 188 185 187 199 207 217 228 263 268
148 139 122 97 71 56 50 45 40 37 38 35 33 32 29 27 27 28 28 26 26 24 19 18 17 19 15 7 360 5 3 353 323 291 314 240 247 245 226 213 207 207 209 219 230 240 257 273 274
187 177 162 125 82 56 42 37 34 34 35 33 27 25 22 22 23 20 19 16 17 16 16 22 18 11 3 358 354 344 338 325 293 308 297 269 249 264 250 232 229 223 229 235 240 251 263 273 280
194 191 197 200 174 54 34 20 19 22 28 29 23 17 14 12 12 11 8 5 7 8 12 14 11 3 358 352 349 349 349 343 303 298 300 300 266 257 266 249 235 233 237 239 246 255 264 272 280
203 206 219 231 237 1 21 359 357 5 8 14 15 14 9 8 10 8 6 2 1 2 8 11 11 5 353 342 339 342 341 331 311 298 301 295 282 263 268 271 250 244 245 255 260 267 270 273 279
213 214 223 237 249 257 339 343 336 343 348 352 359 6 4 3 5 4 4 3 5 6 4 3 2 360 353 342 334 333 337 332 323 304 291 290 298 286 276 275 260 257 256 262 271 279 277 279 285
220 221 228 238 241 263 262 310 316 328 335 340 347 354 355 355 358 357 360 2 3 2 1 360 356 351 347 344 340 333 327 323 315 310 297 292 298 300 292 283 279 272 264 268 274 276 277 281 285
223 226 231 238 246 260 271 274 293 310 319 325 332 340 348 353 354 351 354 358 1 1 360 358 355 351 344 339 340 342 339 329 320 315 308 302 301 306 300 290 285 277 272 273 275 277 280 286 288
226 230 235 242 251 259 262 260 279 292 300 313 324 333 341 350 353 349 348 353 356 356 356 356 355 351 345 342 339 334 333 330 323 317 313 308 301 301 297 292 287 285 283 282 277 281 287 291 292
226 229 235 242 248 255 261 258 265 276 284 296 307 317 323 336 345 346 345 347 351 351 351 351 352 350 345 341 336 331 326 324 319 313 311 309 307 304 300 297 292 288 287 287 286 289 295 296 296
228 229 230 234 244 255 264 258 263 274 280 287 295 305 311 321 331 336 336 341 345 345 346 346 346 347 344 337 333 330 327 322 319 311 310 308 305 302 297 294 294 289 286 288 289 292 294 296 298
229 229 230 239 244 244 254 259 264 271 276 278 283 292 300 308 319 328 331 337 340 341 341 342 342 340 338 334 331 330 328 325 319 313 307 308 309 308 302 294 291 290 289 289 290 291 294 296 298
230 231 232 234 240 243 254 259 258 264 267 271 278 281 288 297 309 317 325 330 334 336 336 335 336 336 334 331 330 330 327 321 315 313 308 305 306 304 301 294 289 290 290 290 290 292 295 296 297
231 232 235 237 239 240 248 257 257 256 258 264 271 272 277 289 301 309 314 320 325 329 333 336 336 334 333 330 327 328 324 319 316 311 309 306 306 305 301 299 297 294 296 294 294 295 296 298 298
231 234 237 239 242 241 238 250 255 251 254 260 263 266 273 285 296 303 305 312 319 326 329 332 333 332 331 329 325 326 324 325 320 317 315 308 305 306 304 303 303 301 301 299 298 297 298 299 299
Height
5912 5911 5911 5911 5911 5911 5909 5908 5906 5905 5904 5903 5902 5901 5901 5900 5901 5902 5899 5898 5898 5897 5897 5896 5896 5896 5895 5895 5894 5894 5893 5893 5893 5893 5893 5892 5892 5892 5892 5892 5892 5892 5892 5892 5892 5892 5892 5892 5892
5914 5914 5914 5914 5914 5913 5911 5910 5908 5906 5905 5904 5903 5903 5902 5901 5901 5900 5899 5899 5899 5898 5898 5898 5898 5897 5896 5896 5895 5895 5895 5894 5894 5894 5894 5894 5894 5893 5893 5893 5893 5893 5894 5893 5894 5894 5894 5894 5894
5917 5916 5917 5917 5916 5915 5914 5911 5910 5908 5907 5906 5905 5904 5903 5903 5902 5901 5901 5900 5900 5900 5899 5899 5899 5898 5897 5897 5896 5896 5896 5896 5895 5895 5895 5895 5895 5895 5895 5895 5895 5895 5895 5895 5895 5895 5895 5895 5895
5920 5920 5920 5920 5918 5916 5915 5913 5911 5910 5909 5907 5906 5905 5904 5904 5903 5903 5902 5902 5901 5901 5901 5900 5900 5899 5899 5898 5898 5897 5897 5897 5897 5896 5896 5896 5896 5896 5896 5896 5896 5896 5896 5897 5897 5897 5897 5897 5897
5922 5922 5923 5922 5920 5918 5917 5915 5913 5912 5910 5909 5908 5907 5906 5905 5905 5904 5903 5903 5903 5902 5902 5901 5901 5901 5900 5899 5899 5899 5898 5898 5898 5898 5897 5897 5897 5897 5897 5898 5898 5898 5898 5898 5898 5898 5898 5898 5898
5925 5926 5927 5924 5922 5920 5919 5917 5915 5913 5912 5911 5909 5908 5907 5906 5906 5905 5904 5904 5904 5904 5903 5902 5902 5902 5901 5901 5900 5900 5900 5900 5899 5899 5899 5898 5899 5899 5899 5899 5899 5899 5899 5899 5899 5899 5899 5900 5900
5928 5928 5927 5926 5924 5922 5921 5919 5917 5915 5914 5913 5911 5910 5909 5908 5907 5907 5906 5906 5905 5905 5904 5904 5903 5903 5902 5902 5902 5902 5901 5901 5901 5900 5900 5900 5900 5900 5900 5900 5900 5900 5900 5900 5900 5900 5901 5901 5901
5929 5931 5930 5928 5927 5925 5923 5921 5919 5917 5916 5915 5913 5911 5910 5910 5909 5908 5908 5907 5907 5906 5906 5905 5904 5904 5903 5903 5903 5902 5902 5902 5902 5902 5901 5901 5901 5901 5901 5901 5901 5901 5902 5902 5902 5902 5902 5902 5902
5932 5935 5932 5930 5929 5927 5925 5923 5921 5919 5918 5916 5914 5913 5912 5911 5911 5910 5909 5909 5908 5907 5907 5906 5905 5905 5904 5904 5903 5903 5903 5903 5903 5903 5902 5902 5902 5902 5902 5902 5902 5902 5902 5902 5903 5903 5903 5903 5903
5934 5936 5934 5932 5930 5929 5927 5925 5923 5922 5920 5918 5917 5915 5914 5913 5912 5912 5911 5910 5910 5909 5908 5907 5906 5906 5905 5905 5904 5904 5904 5904 5904 5903 5903 5903 5903 5903 5903 5902 5903 5903 5903 5903 5903 5904 5904 5904 5904
5936 5936 5935 5933 5932 5930 5928 5927 5925 5924 5922 5921 5919 5918 5916 5915 5914 5913 5913 5912 5911 5910 5909 5908 5907 5906 5906 5905 5905 5905 5904 5904 5904 5904 5904 5904 5904 5904 5904 5904 5904 5904 5904 5904 5904 5905 5905 5905 5905
5937 5937 5936 5934 5933 5932 5930 5929 5927 5926 5925 5923 5922 5920 5918 5917 5916 5915 5914 5913 5912 5911 5910 5909 5908 5907 5907 5906 5906 5906 5905 5905 5905 5905 5905 5905 5905 5905 5905 5904 5904 5904 5905 5905 5905 5906 5906 5906 5906
5939 5938 5937 5936 5935 5934 5932 5931 5930 5928 5927 5925 5923 5922 5920 5919 5918 5917 5916 5915 5914 5913 5912 5910 5909 5908 5908 5907 5907 5906 5906 5906 5906 5906 5906 5906 5905 5905 5905 5905 5905 5905 5905 5906 5906 5906 5907 5907 5907
5939 5939 5938 5937 5936 5935 5934 5933 5932 5930 5928 5927 5925 5924 5923 5921 5920 5919 5917 5916 5915 5914 5912 5911 5910 5909 5908 5908 5907 5907 5906 5906 5906 5906 5906 5905 5905 5905 5905 5905 5906 5906 5906 5906 5907 5907 5907 5907 5907
5940 5940 5940 5939 5938 5937 5936 5935 5934 5932 5930 5929 5927 5926 5924 5923 5921 5920 5919 5917 5916 5915 5913 5912 5911 5910 5909 5908 5908 5907 5906 5906 5905 5905 5906 5905 5905 5905 5905 5906 5906 5906 5906 5906 5907 5907 5907 5907 5907
5940 5941 5942 5941 5939 5939 5939 5938 5936 5933 5932 5930 5929 5927 5926 5924 5923 5921 5920 5919 5917 5915 5914 5912 5911 5910 5909 5908 5908 5907 5907 5906 5906 5906 5906 5906 5906 5905 5905 5906 5906 5906 5906 5906 5907 5907 5907 5907 5907
5941 5943 5942 5942 5940 5940 5939 5938 5937 5935 5933 5932 5930 5929 5927 5926 5924 5923 5921 5920 5918 5916 5914 5913 5912 5910 5909 5909 5908 5907 5907 5906 5906 5906 5905 5905 5905 5905 5905 5905 5905 5905 5906 5906 5906 5906 5906 5906 5906
5942 5942 5942 5942 5941 5941 5940 5939 5938 5936 5934 5933 5931 5930 5928 5927 5925 5924 5922 5920 5919 5917 5915 5913 5912 5911 5910 5909 5908 5908 5907 5906 5906 5905 5905 5904 5904 5904 5904 5905 5905 5905 5905 5905 5905 5906 5905 5905 5905
5940 5941 5942 5942 5941 5941 5940 5939 5938 5937 5935 5934 5932 5931 5929 5928 5926 5924 5923 5921 5919 5917 5915 5914 5912 5911 5910 5909 5908 5908 5907 5906 5906 5905 5904 5904 5904 5904 5904 5904 5904 5904 5904 5904 5904 5904 5904 5904 5904
5938 5940 5941 5941 5941 5941 5940 5940 5938 5937 5936 5935 5933 5932 5930 5929 5927 5925 5923 5921 5919 5917 5916 5914 5913 5912 5911 5909 5908 5908 5907 5906 5905 5905 5904 5904 5903 5903 5903 5903 5903 5903 5903 5903 5903 5903 5903 5903 5903
5936 5938 5939 5940 5940 5940 5940 5940 5939 5938 5936 5935 5934 5932 5931 5930 5928 5926 5924 5922 5920 5918 5916 5914 5913 5911 5910 5909 5908 5907 5906 5906 5905 5904 5904 5903 5903 5902 5902 5902 5902 5902 5902 5902 5902 5902 5902 5901 5901
5934 5936 5937 5938 5939 5940 5941 5942 5939 5937 5936 5935 5934 5932 5931 5930 5928 5927 5925 5922 5920 5918 5916 5914 5913 5911 5910 5909 5908 5907 5906 5905 5905 5904 5903 5902 5902 5901 5901 5901 5901 5900 5900 5900 5900 5900 5900 5899 5899
5932 5934 5935 5936 5938 5939 5939 5941 5941 5937 5936 5935 5934 5932 5931 5930 5928 5927 5925 5923 5921 5919 5917 5915 5913 5911 5910 5908 5907 5906 5905 5904 5903 5903 5902 5901 5901 5900 5900 5900 5899 5899 5899 5898 5898 5898 5898 5897 5897
5928 5931 5933 5934 5936 5938 5938 5939 5939 5937 5935 5934 5933 5932 5931 5930 5928 5926 5925 5923 5921 5919 5917 5915 5913 5911 5910 5908 5907 5906 5905 5904 5903 5902 5901 5900 5900 5899 5899 5898 5898 5898 5897 5897 5896 5896 5895 5895 5894
5926 5929 5932 5934 5936 5937 5936 5936 5937 5935 5934 5933 5932 5931 5930 5929 5928 5926 5924 5923 5921 5919 5917 5915 5913 5911 5909 5908 5907 5905 5904 5903 5902 5901 5900 5899 5899 5898 5897 5897 5896 5896 5895 5895 5894 5894 5893 5892 5892
5922 5926 5930 5933 5935 5935 5933 5934 5935 5933 5932 5931 5931 5930 5929 5928 5927 5926 5924 5922 5920 5919 5916 5914 5912 5910 5909 5907 5906 5905 5903 5902 5900 5899 5899 5898 5897 5896 5896 5895 5894 5893 5893 5892 5892 5891 5890 5890 5889
5918 5921 5926 5929 5930 5932 5932 5931 5931 5931 5930 5930 5929 5929 5928 5927 5926 5925 5923 5922 5920 5918 5916 5913 5911 5910 5908 5906 5905 5904 5902 5900 5899 5898 5897 5896 5895 5894 5894 5893 5892 5891 5891 5890 5889 5888 5888 5887 5886
5914 5917 5920 5924 5926 5928 5929 5929 5930 5928 5928 5928 5927 5927 5926 5926 5925 5924 5922 5920 5919 5917 5915 5912 5910 5909 5907 5906 5904 5902 5901 5899 5898 5896 5895 5894 5893 5892 5891 5890 5890 5889 5888 5887 5886 5885 5884 5883 5882
5909 5912 5915 5919 5922 5925 5928 5930 5926 5925 5925 5925 5925 5925 5925 5924 5923 5922 5921 5919 5917 5916 5914 5912 5910 5908 5907 5905 5903 5901 5899 5897 5896 5895 5894 5892 5891 5890 5889 5888 5888 5887 5886 5885 5883 5882 5881 5880 5879
5904 5907 5910 5914 5916 5919 5923 5927 5921 5922 5922 5923 5923 5923 5923 5922 5921 5920 5919 5918 5916 5914 5913 5911 5909 5907 5905 5903 5902 5900 5898 5896 5895 5893 5892 5891 5890 5888 5887 5886 5885 5884 5883 5882 5881 5879 5878 5877 5875